| time (UTC) | temp F | wind direction | speed MPH | gust MPH | rain 1hr in | rain 24hr in | rain mn in | humidity % | barometer mb |
| 20260507024007 | 56 | 335 | 0.0 | 0.0 | 0.00 | 0.00 | 0.00 | 89 | 1018.7 |
| 20260507023007 | 56 | 335 | 0.0 | 2.0 | 0.00 | 0.00 | 0.00 | 89 | 1018.6 |
| 20260507022007 | 56 | 335 | 0.0 | 2.0 | 0.00 | 0.00 | 0.00 | 89 | 1018.6 |
| 20260507021007 | 56 | 335 | 0.0 | 2.0 | 0.00 | 0.00 | 0.00 | 89 | 1018.6 |
| 20260507020007 | 56 | 338 | 0.0 | 2.0 | 0.00 | 0.00 | 0.00 | 89 | 1018.6 |
| 20260507015008 | 56 | 337 | 0.0 | 1.0 | 0.00 | 0.00 | 0.00 | 88 | 1018.6 |
| 20260507013008 | 56 | 337 | 1.0 | 3.0 | 0.00 | 0.00 | 0.00 | 88 | 1018.7 |
| 20260507012007 | 56 | 337 | 1.0 | 2.0 | 0.00 | 0.00 | 0.00 | 87 | 1018.7 |
| 20260507011007 | 56 | 337 | 0.0 | 2.0 | 0.00 | 0.00 | 0.00 | 88 | 1018.7 |
| 20260507010007 | 56 | 337 | 2.0 | 3.0 | 0.00 | 0.00 | 0.00 | 88 | 1018.9 |
| 20260507004007 | 56 | 42 | 0.0 | 5.0 | 0.00 | 0.00 | 0.00 | 88 | 1018.9 |
| 20260507003007 | 56 | 345 | 0.0 | 3.0 | 0.00 | 0.00 | 0.00 | 89 | 1019.0 |
| 20260507002008 | 56 | 340 | 0.0 | 3.0 | 0.00 | 0.00 | 0.00 | 90 | 1019.0 |
| 20260507000008 | 56 | 316 | 3.0 | 5.0 | 0.00 | 0.00 | 0.00 | 90 | 1019.0 |
| 20260506235008 | 56 | 10 | 2.0 | 6.0 | 0.00 | 0.00 | 0.00 | 90 | 1018.8 |
| 20260506233007 | 56 | 319 | 4.0 | 5.0 | 0.00 | 0.00 | 0.00 | 89 | 1018.7 |
| 20260506232007 | 57 | 304 | 4.0 | 7.0 | 0.00 | 0.00 | 0.00 | 87 | 1018.7 |
| 20260506231006 | 57 | 329 | 2.0 | 9.0 | 0.00 | 0.00 | 0.00 | 86 | 1018.7 |
| 20260506230007 | 58 | 301 | 2.0 | 7.0 | 0.00 | 0.00 | 0.00 | 84 | 1018.7 |
| 20260506224006 | 59 | 327 | 1.0 | 7.0 | 0.00 | 0.00 | 0.00 | 81 | 1018.7 |
| 20260506222006 | 60 | 297 | 3.0 | 6.0 | 0.00 | 0.00 | 0.00 | 79 | 1018.8 |
| 20260506221007 | 60 | 286 | 0.0 | 7.0 | 0.00 | 0.00 | 0.00 | 79 | 1018.7 |
| 20260506220006 | 61 | 267 | 3.0 | 7.0 | 0.00 | 0.00 | 0.00 | 80 | 1018.6 |
| 20260506215007 | 61 | 328 | 4.0 | 7.0 | 0.00 | 0.00 | 0.00 | 80 | 1018.6 |
| 20260506214007 | 61 | 317 | 1.0 | 9.0 | 0.00 | 0.00 | 0.00 | 79 | 1018.6 |
| 20260506213007 | 61 | 308 | 4.0 | 10.0 | 0.00 | 0.00 | 0.00 | 80 | 1018.6 |
| 20260506212007 | 60 | 335 | 6.0 | 13.0 | 0.00 | 0.00 | 0.00 | 81 | 1018.6 |
| 20260506210006 | 60 | 285 | 4.0 | 10.0 | 0.00 | 0.00 | 0.00 | 81 | 1018.5 |
| 20260506205007 | 60 | 304 | 5.0 | 13.0 | 0.00 | 0.00 | 0.00 | 82 | 1018.5 |
| 20260506204007 | 60 | 317 | 5.0 | 12.0 | 0.00 | 0.00 | 0.00 | 82 | 1018.5 |
| 20260506203006 | 60 | 350 | 5.0 | 12.0 | 0.00 | 0.00 | 0.00 | 82 | 1018.4 |
| 20260506201006 | 60 | 296 | 5.0 | 13.0 | 0.00 | 0.00 | 0.00 | 82 | 1018.3 |
| 20260506195006 | 60 | 330 | 5.0 | 7.0 | 0.00 | 0.00 | 0.00 | 82 | 1018.1 |
| 20260506193007 | 60 | 335 | 3.0 | 12.0 | 0.00 | 0.00 | 0.00 | 84 | 1018.3 |
| 20260506192006 | 60 | 304 | 5.0 | 12.0 | 0.00 | 0.00 | 0.00 | 83 | 1018.2 |
| 20260506191006 | 60 | 297 | 3.0 | 7.0 | 0.00 | 0.00 | 0.00 | 83 | 1018.4 |
| 20260506190007 | 60 | 310 | 2.0 | 7.0 | 0.00 | 0.00 | 0.00 | 82 | 1018.2 |
| 20260506185006 | 60 | 319 | 2.0 | 6.0 | 0.00 | 0.00 | 0.00 | 83 | 1018.2 |
| 20260506184006 | 60 | 335 | 3.0 | 5.0 | 0.00 | 0.00 | 0.00 | 84 | 1018.1 |
| 20260506183006 | 59 | 285 | 3.0 | 5.0 | 0.00 | 0.00 | 0.00 | 84 | 1018.0 |
| 20260506182006 | 59 | 287 | 2.0 | 6.0 | 0.00 | 0.00 | 0.00 | 85 | 1018.0 |
| 20260506180006 | 59 | 308 | 2.0 | 6.0 | 0.00 | 0.00 | 0.00 | 86 | 1018.3 |
| 20260506175005 | 59 | 319 | 2.0 | 7.0 | 0.00 | 0.00 | 0.00 | 87 | 1018.3 |
| 20260506174007 | 58 | 312 | 4.0 | 7.0 | 0.00 | 0.00 | 0.00 | 86 | 1018.3 |
| 20260506173006 | 58 | 292 | 2.0 | 5.0 | 0.00 | 0.00 | 0.00 | 87 | 1018.0 |
| 20260506171006 | 58 | 342 | 2.0 | 5.0 | 0.00 | 0.00 | 0.00 | 88 | 1018.0 |
| 20260506170005 | 58 | 284 | 2.0 | 3.0 | 0.00 | 0.00 | 0.00 | 88 | 1017.6 |
| 20260506164005 | 57 | 11 | 1.0 | 2.0 | 0.00 | 0.00 | 0.00 | 89 | 1017.6 |
| 20260506163006 | 57 | 11 | 0.0 | 2.0 | 0.00 | 0.00 | 0.00 | 90 | 1017.6 |
| 20260506162006 | 56 | 11 | 1.0 | 3.0 | 0.00 | 0.00 | 0.00 | 91 | 1017.8 |
| 20260506161006 | 56 | 11 | 1.0 | 3.0 | 0.00 | 0.00 | 0.00 | 91 | 1017.8 |
| 20260506153006 | 55 | 11 | 1.0 | 3.0 | 0.00 | 0.00 | 0.00 | 92 | 1017.6 |
| 20260506152006 | 55 | 11 | 1.0 | 2.0 | 0.00 | 0.00 | 0.00 | 93 | 1017.6 |
| 20260506151005 | 55 | 11 | 0.0 | 2.0 | 0.00 | 0.00 | 0.00 | 93 | 1017.6 |
| 20260506150006 | 55 | 11 | 0.0 | 2.0 | 0.00 | 0.00 | 0.00 | 93 | 1017.6 |
| 20260506144006 | 55 | 11 | 0.0 | 0.0 | 0.00 | 0.00 | 0.00 | 94 | 1017.5 |
| 20260506143006 | 54 | 13 | 0.0 | 0.0 | 0.00 | 0.00 | 0.00 | 94 | 1017.5 |
| 20260506142007 | 54 | 13 | 0.0 | 2.0 | 0.00 | 0.00 | 0.00 | 94 | 1017.8 |
| 20260506141007 | 54 | 13 | 0.0 | 2.0 | 0.00 | 0.00 | 0.00 | 94 | 1017.1 |
| 20260506140006 | 54 | 13 | 1.0 | 3.0 | 0.00 | 0.00 | 0.00 | 94 | 1017.1 |
| 20260506135006 | 54 | 73 | 0.0 | 1.0 | 0.00 | 0.00 | 0.00 | 95 | 1017.1 |
| 20260506134005 | 54 | 73 | 0.0 | 0.0 | 0.00 | 0.00 | 0.00 | 95 | 1017.1 |
| 20260506133006 | 54 | 73 | 0.0 | 0.0 | 0.00 | 0.00 | 0.00 | 95 | 1017.1 |
| 20260506132006 | 53 | 34 | 0.0 | 0.0 | 0.00 | 0.00 | 0.00 | 95 | 1017.2 |
| 20260506131005 | 53 | 34 | 0.0 | 0.0 | 0.00 | 0.00 | 0.00 | 95 | 1017.1 |
| 20260506130006 | 53 | 34 | 0.0 | 0.0 | 0.00 | 0.00 | 0.00 | 95 | 1016.9 |
| 20260506125006 | 53 | 34 | 0.0 | 0.0 | 0.00 | 0.00 | 0.00 | 95 | 1016.9 |
| 20260506124005 | 53 | 34 | 0.0 | 0.0 | 0.00 | 0.00 | 0.00 | 95 | 1016.9 |
| 20260506123006 | 53 | 34 | 0.0 | 0.0 | 0.00 | 0.00 | 0.00 | 95 | 1016.9 |
| 20260506122007 | 53 | 34 | 0.0 | 0.0 | 0.00 | 0.00 | 0.00 | 95 | 1016.7 |
| 20260506121005 | 53 | 34 | 0.0 | 0.0 | 0.00 | 0.00 | 0.00 | 95 | 1016.7 |
| 20260506120006 | 53 | 34 | 0.0 | 0.0 | 0.00 | 0.00 | 0.00 | 95 | 1016.6 |
| 20260506115006 | 53 | 34 | 0.0 | 0.0 | 0.00 | 0.00 | 0.00 | 95 | 1016.6 |
| 20260506114005 | 53 | 34 | 0.0 | 0.0 | 0.00 | 0.00 | 0.00 | 95 | 1016.6 |
| 20260506113006 | 53 | 34 | 0.0 | 0.0 | 0.00 | 0.00 | 0.00 | 95 | 1016.5 |
| 20260506112005 | 52 | 34 | 0.0 | 0.0 | 0.00 | 0.00 | 0.00 | 95 | 1016.5 |
| 20260506111005 | 52 | 34 | 0.0 | 0.0 | 0.00 | 0.00 | 0.00 | 95 | 1016.5 |
| 20260506110005 | 52 | 34 | 0.0 | 0.0 | 0.00 | 0.00 | 0.00 | 95 | 1016.4 |
| 20260506102006 | 52 | 34 | 0.0 | 0.0 | 0.00 | 0.00 | 0.00 | 95 | 1015.8 |
| 20260506101005 | 52 | 34 | 0.0 | 0.0 | 0.00 | 0.00 | 0.00 | 95 | 1015.8 |
| 20260506100006 | 52 | 34 | 0.0 | 0.0 | 0.00 | 0.00 | 0.00 | 95 | 1015.7 |
| 20260506095006 | 51 | 34 | 0.0 | 2.0 | 0.00 | 0.00 | 0.00 | 95 | 1015.7 |
| 20260506094005 | 51 | 34 | 0.0 | 0.0 | 0.00 | 0.00 | 0.00 | 95 | 1015.6 |
| 20260506093005 | 51 | 34 | 0.0 | 0.0 | 0.00 | 0.00 | 0.00 | 95 | 1015.5 |
| 20260506092005 | 51 | 34 | 0.0 | 0.0 | 0.00 | 0.00 | 0.00 | 95 | 1015.5 |
| 20260506090006 | 51 | 34 | 0.0 | 0.0 | 0.00 | 0.00 | 0.00 | 95 | 1015.3 |
| 20260506085005 | 51 | 34 | 0.0 | 0.0 | 0.00 | 0.00 | 0.00 | 95 | 1015.3 |
| 20260506084005 | 52 | 34 | 0.0 | 2.0 | 0.00 | 0.00 | 0.00 | 95 | 1015.4 |
| 20260506083005 | 52 | 103 | 0.0 | 0.0 | 0.00 | 0.00 | 0.00 | 95 | 1015.4 |
| 20260506082006 | 52 | 103 | 0.0 | 0.0 | 0.00 | 0.00 | 0.00 | 95 | 1015.4 |
| 20260506073004 | 51 | 103 | 0.0 | 0.0 | 0.00 | 0.00 | 0.00 | 95 | 1015.3 |
| 20260506072005 | 51 | 103 | 0.0 | 0.0 | 0.00 | 0.00 | 0.00 | 95 | 1015.2 |
| 20260506071005 | 51 | 103 | 0.0 | 0.0 | 0.00 | 0.00 | 0.00 | 94 | 1015.2 |
| 20260506062005 | 52 | 103 | 0.0 | 0.0 | 0.00 | 0.00 | 0.00 | 94 | 1014.5 |
| 20260506061006 | 52 | 103 | 0.0 | 0.0 | 0.00 | 0.00 | 0.00 | 94 | 1014.3 |
| 20260506051005 | 54 | 81 | 0.0 | 0.0 | 0.00 | 0.00 | 0.00 | 93 | 1013.8 |
| 20260506045005 | 54 | 81 | 0.0 | 0.0 | 0.00 | 0.00 | 0.00 | 92 | 1013.8 |
| 20260506044004 | 54 | 81 | 0.0 | 0.0 | 0.00 | 0.00 | 0.00 | 91 | 1013.8 |
| 20260506042005 | 55 | 318 | 0.0 | 0.0 | 0.00 | 0.00 | 0.00 | 90 | 1013.8 |
| 20260506041004 | 56 | 318 | 0.0 | 0.0 | 0.00 | 0.00 | 0.00 | 90 | 1013.8 |
| 20260506040004 | 57 | 318 | 0.0 | 0.0 | 0.00 | 0.00 | 0.00 | 89 | 1013.8 |
| 20260506035007 | 57 | 318 | 0.0 | 0.0 | 0.00 | 0.00 | 0.00 | 89 | 1013.6 |
| 20260506034007 | 58 | 318 | 0.0 | 0.0 | 0.00 | 0.00 | 0.00 | 88 | 1013.5 |
| 20260506033008 | 59 | 318 | 0.0 | 0.0 | 0.00 | 0.00 | 0.00 | 86 | 1013.2 |
| 20260506032008 | 60 | 318 | 0.0 | 0.0 | 0.00 | 0.00 | 0.00 | 85 | 1013.2 |
| 20260506031007 | 60 | 318 | 0.0 | 0.0 | 0.00 | 0.00 | 0.00 | 84 | 1013.2 |
| 20260506030007 | 61 | 319 | 0.0 | 0.0 | 0.00 | 0.00 | 0.00 | 83 | 1013.2 |
| 20260506025007 | 61 | 319 | 0.0 | 2.0 | 0.00 | 0.00 | 0.00 | 81 | 1013.1 |